Terug naar catalogus

HAINAN-1 01

ActiefWetenschapPO
NORAD 51825·PAYLOAD·🇨🇳 China
Deze satellietnaam is nog niet bevestigd door officiële bronnen.

Gelanceerd Feb 27, 2022 vanaf Wenchang Space Launch Site

Loading…

Volgende Passages (komende 24 uur)

TLE

VersSource: Space-Track

Epoch: Sep 11, 2026, 23:38 UTC

1 51825U 22019B   26254.98526623  .05925279  24873-5  55233-3 0  9994
2 51825  97.3166 354.2449 0012094 269.7432  90.2481 16.38561643253563

Volg HAINAN-1 01 in realtime met AllMySat

Download on the App Store